[[{"header":{"parameterUnit":"m.s-1","parameterCategory":1,"la1":30.2991,"la2":30.254,"lo1":-89.0895,"lo2":-89.0444,"dy":0.0017,"dx":0.0017,"nx":28,"ny":28,"refTime":"2025-07-20T09:00:00:Z","depth":0,"parameterNumber":2,"parameterNumberName":"U-component_of_WINDS"},"data":[0,0,0,0,0,0,0,0,0,0,0,0,0,0,0,0,0,0,0,0,0,0,0,0,0,0,0,0,0,0,0,0,0,0,0,0,0,0,0,0,0,0,0,0,0,0,0,0,0,0,0,0,0,0,0,0,0,0,1.3749,1.3749,0,1.3771,1.3771,1.3772,1.3723,1.3721,1.372,1.3718,1.3742,1.3744,1.3746,0,0,0,0,0,0,0,0,0,0,0,0,0,1.3662,1.3664,1.3748,1.3749,1.3749,1.3771,1.3771,1.3772,1.3723,1.3721,1.3719,1.3718,1.3741,1.3744,1.3746,0,0,0,0,0,0,0,0,0,0,0,0,0,1.3694,1.3665,1.3748,1.3728,1.3726,1.3771,1.3771,1.3772,1.3724,1.3721,1.3719,1.3717,1.374,1.3743,1.3747,1.3813,0,0,1.3756,1.3757,0,0,0,0,0,0,0,0,1.3692,1.3697,1.373,1.3729,1.3727,1.3742,1.375,1.3786,1.3724,1.3725,1.3718,1.3716,1.3744,1.3746,1.3756,1.3814,1.3815,1.3756,1.3758,1.376,1.376,0,0,0,0,0,0,0,1.369,1.3696,1.3757,1.3731,1.3729,1.3717,1.3719,1.3756,1.3747,1.3724,1.3721,1.3724,1.3742,1.3753,1.3756,1.3816,1.3756,1.3759,1.3761,1.3762,1.3927,1.3929,0,0,0,0,0,0,1.3691,1.3694,1.3757,1.3758,1.3704,1.372,1.3722,1.374,1.3747,1.3745,1.3726,1.3722,1.3749,1.3753,1.3757,1.3833,1.376,1.3763,1.3764,1.3924,1.3927,1.393,0,0,0,0,0,0,1.3689,1.3697,1.3756,1.3725,1.3732,1.3724,1.3744,1.3741,1.3752,1.3748,1.3746,1.3739,1.3747,1.3752,1.3799,1.3833,1.3764,1.3767,1.3921,1.3925,1.3929,1.3987,0,0,0,0,0,0,1.3687,1.3696,1.3722,1.3726,1.3734,1.3798,1.3746,1.3743,1.3757,1.3752,1.3759,1.3758,1.3746,1.3794,1.3802,1.3836,1.3769,1.3918,1.3923,1.3927,1.3982,1.3992,1.4001,0,0,0,0,0,1.3684,1.3738,1.3723,1.3731,1.3765,1.38,1.3804,1.3789,1.376,1.3785,1.3783,1.3758,1.3829,1.38,1.3808,1.3843,1.3916,1.3922,1.3927,1.3978,1.399,1.4001,0,0,0,0,0,0,1.3738,1.3738,1.3722,1.3779,1.379,1.3792,1.3823,1.3803,1.3822,1.3816,1.3796,1.3798,1.3848,1.3851,1.3818,1.3907,1.3867,1.3875,1.3903,1.3915,1.3924,1.3922,1.3772,0,0,0,0,0,1.3757,1.3785,1.3784,1.3834,1.3841,1.3831,1.3846,1.3833,1.3843,1.3847,1.3848,1.3859,1.3883,1.3899,1.3922,1.3983,1.3982,1.4011,1.4021,1.4029,1.4035,1.4065,1.4077,1.3948,1.3948,1.3948,0,0,1.3796,1.3799,1.3818,1.3845,1.3852,1.3881,1.3835,1.3868,1.3889,1.3852,1.3895,1.3896,1.3907,1.396,1.3984,1.3964,1.407,1.4036,1.4042,1.4044,1.4072,1.4084,1.4095,1.3952,1.3952,1.3951,0,0,1.3881,1.3887,1.3929,1.3936,1.3947,1.394,1.395,1.3955,1.3953,1.3997,1.3969,1.3994,1.4037,1.4044,1.4054,1.4141,1.4118,1.4149,1.4198,1.4228,1.4238,1.4247,1.4275,1.4286,1.4156,1.4156,1.4156,0,1.3928,1.397,1.3953,1.3987,1.3999,1.3967,1.4008,1.4016,1.4034,1.4042,1.402,1.4072,1.4077,1.413,1.4151,1.4161,1.4171,1.4147,1.4238,1.4247,1.4255,1.4282,1.4293,1.4159,1.4159,1.4158,1.4158,0,1.4026,1.4056,1.4088,1.4105,1.4121,1.4159,1.4146,1.4164,1.415,1.4145,1.4189,1.4194,1.4215,1.4228,1.4215,1.4279,1.4266,1.4241,1.4201,1.4271,1.4296,1.4306,1.4164,1.4163,1.4162,1.4161,0,0,1.4145,1.4151,1.4163,1.4169,1.4178,1.42,1.4237,1.4257,1.4272,1.4285,1.4314,1.435,1.4327,1.4338,1.4326,1.4352,1.4417,1.4324,1.4323,1.4339,1.4486,1.4502,1.4515,1.4403,1.4405,1.4406,1.4484,0,1.4227,1.4288,1.4273,1.4334,1.436,1.4329,1.436,1.4368,1.4365,1.4386,1.4383,1.4408,1.4377,1.4383,1.4407,1.4404,1.4446,1.4399,1.4428,1.4429,1.4424,1.4528,1.4547,1.4619,1.4494,1.4496,1.4497,0,1.4331,1.4347,1.4409,1.4412,1.4422,1.445,1.4467,1.4489,1.4497,1.4493,1.4505,1.4486,1.4521,1.4482,1.4528,1.4496,1.4507,1.4507,1.451,1.451,1.4466,1.4529,1.4643,1.4653,1.4513,1.4511,1.451,0,1.4408,1.4446,1.4487,1.4494,1.4499,1.4519,1.4522,1.4528,1.4541,1.4556,1.4564,1.4583,1.4593,1.4608,1.4595,1.4568,1.4643,1.4603,1.4639,1.4639,1.4654,1.4653,1.4768,1.4665,1.4665,1.4665,1.4665,0,1.45,1.4539,1.4522,1.4547,1.4589,1.4572,1.4614,1.4614,1.4619,1.4643,1.4619,1.4642,1.4625,1.4646,1.4637,1.4675,1.4681,1.4677,1.4674,1.4678,1.4678,1.4683,1.4677,1.4668,1.4667,1.4667,1.4666,0,1.4593,1.4583,1.4626,1.4627,1.4628,1.4659,1.4659,1.4682,1.4677,1.4707,1.4714,1.4705,1.4729,1.4718,1.4744,1.4737,1.4786,1.4777,1.4783,1.478,1.4815,1.4811,1.4936,1.4951,1.4841,1.4842,1.4843,0,1.4651,1.4679,1.4683,1.4697,1.4702,1.4725,1.4738,1.4722,1.4736,1.4747,1.4768,1.479,1.4806,1.4846,1.4842,1.4861,1.4851,1.4893,1.4853,1.4856,1.4848,1.4846,1.4848,1.4901,1.4902,1.4903,1.4904,0,1.4754,1.4747,1.4766,1.4783,1.4799,1.4812,1.4823,1.4836,1.482,1.4837,1.4861,1.4873,1.4899,1.492,1.4936,1.4939,1.4918,1.4917,1.4925,1.4929,1.493,1.4927,1.4802,1.4913,1.4912,1.4912,1.4911,1.4911,1.4829,1.4852,1.4858,1.4879,1.4886,1.4896,1.4917,1.4914,1.4933,1.4952,1.4942,1.4969,1.4976,1.4995,1.5001,1.5021,1.5004,1.5018,1.5021,1.5024,1.5027,1.4929,1.5025,1.5025,1.5024,1.5024,1.5024,0,1.4928,1.493,1.495,1.4965,1.4982,1.4962,1.4972,1.4987,1.5012,1.5019,1.5036,1.5062,1.5082,1.508,1.5098,1.5115,1.5106,1.512,1.5118,1.5118,1.5043,1.5032,1.5127,1.5127,1.5127,1.5127,1.5127,1.5127,1.4981,1.5019,1.5013,1.5053,1.5055,1.5081,1.5088,1.5097,1.5103,1.5134,1.515,1.5149,1.5152,1.517,1.5187,1.5186,1.5193,1.521,1.5205,1.5134,1.5124,1.5114,1.5104,1.5212,1.5213,1.5279,1.5279,1.528]},{"header":{"parameterUnit":"m.s-1","parameterCategory":1,"la1":30.2991,"la2":30.254,"lo1":-89.0895,"lo2":-89.0444,"dy":0.0017,"dx":0.0017,"nx":28,"ny":28,"refTime":"2025-07-20T09:00:00:Z","depth":0,"parameterNumber":3,"parameterNumberName":"V-component_of_WINDS"},"data":[0,0,0,0,0,0,0,0,0,0,0,0,0,0,0,0,0,0,0,0,0,0,0,0,0,0,0,0,0,0,0,0,0,0,0,0,0,0,0,0,0,0,0,0,0,0,0,0,0,0,0,0,0,0,0,0,0,0,3.2693,3.2694,0,3.2796,3.2797,3.2798,3.2757,3.2754,3.2752,3.2749,3.2852,3.2857,3.2862,0,0,0,0,0,0,0,0,0,0,0,0,0,3.2455,3.246,3.2693,3.2694,3.2695,3.2796,3.2797,3.2799,3.2757,3.2754,3.2751,3.2748,3.2851,3.2857,3.2863,0,0,0,0,0,0,0,0,0,0,0,0,0,3.2558,3.2461,3.2693,3.2687,3.2687,3.2796,3.2797,3.2799,3.2758,3.2754,3.275,3.2747,3.2849,3.2856,3.2863,3.2983,0,0,3.2886,3.289,0,0,0,0,0,0,0,0,3.2553,3.2567,3.2686,3.2687,3.2688,3.276,3.2751,3.2861,3.2759,3.2731,3.2749,3.2745,3.2824,3.2834,3.2861,3.2988,3.2992,3.2887,3.2892,3.2895,3.2897,0,0,0,0,0,0,0,3.2545,3.2562,3.2734,3.2688,3.2689,3.2678,3.2688,3.2772,3.2797,3.2733,3.273,3.2743,3.2824,3.2854,3.2863,3.2994,3.2887,3.2894,3.2898,3.2901,3.3221,3.3224,0,0,0,0,0,0,3.2539,3.2557,3.273,3.2737,3.261,3.2685,3.2697,3.274,3.2796,3.2801,3.2746,3.2741,3.2843,3.2854,3.2866,3.3008,3.2895,3.2902,3.2906,3.3217,3.3222,3.3226,0,0,0,0,0,0,3.2534,3.2555,3.2726,3.2646,3.2667,3.2693,3.2742,3.2744,3.2774,3.2806,3.281,3.2772,3.284,3.2856,3.2954,3.3011,3.2905,3.2912,3.3212,3.3218,3.3224,3.3293,0,0,0,0,0,0,3.2527,3.2553,3.26,3.2647,3.2671,3.2813,3.2746,3.2749,3.2787,3.2781,3.2831,3.2836,3.2839,3.2943,3.2961,3.302,3.2918,3.3207,3.3215,3.3222,3.3286,3.3301,3.3314,0,0,0,0,0,3.2519,3.2615,3.2602,3.2624,3.2731,3.2817,3.283,3.2832,3.2792,3.2839,3.2858,3.2834,3.3002,3.2953,3.2974,3.3035,3.3203,3.3213,3.3221,3.328,3.3298,3.3314,0,0,0,0,0,0,3.2573,3.2621,3.2608,3.2723,3.2766,3.2809,3.2868,3.2852,3.2907,3.2899,3.2898,3.291,3.301,3.3033,3.2977,3.3152,3.3096,3.311,3.3134,3.3152,3.3165,3.3157,3.2924,0,0,0,0,0,3.2599,3.2666,3.2704,3.2802,3.2824,3.2843,3.288,3.2878,3.2922,3.294,3.2967,3.301,3.3072,3.3113,3.3172,3.3289,3.3298,3.3341,3.3355,3.3366,3.3378,3.3439,3.3458,3.3255,3.3255,3.3255,0,0,3.2652,3.2687,3.2729,3.2813,3.2847,3.2914,3.2858,3.2933,3.2982,3.2951,3.3045,3.3066,3.3114,3.3221,3.327,3.3243,3.3435,3.3378,3.3386,3.3392,3.345,3.3469,3.3486,3.3261,3.326,3.3259,0,0,3.2783,3.2817,3.2901,3.2936,3.2987,3.2998,3.3018,3.3064,3.3077,3.3171,3.3148,3.3207,3.3315,3.3349,3.3381,3.3523,3.3502,3.3542,3.3614,3.3674,3.369,3.3704,3.3753,3.377,3.3553,3.3554,3.3554,0,3.2843,3.2945,3.2946,3.3023,3.3059,3.3034,3.3118,3.3151,3.3219,3.3244,3.3213,3.3346,3.3377,3.3491,3.3525,3.3552,3.3574,3.3536,3.3687,3.3702,3.3715,3.3761,3.378,3.3558,3.3558,3.3557,3.3557,0,3.3014,3.3086,3.3147,3.3213,3.3257,3.3337,3.3348,3.3392,3.3386,3.34,3.3495,3.3531,3.3596,3.3623,3.3617,3.3735,3.3717,3.3687,3.3631,3.3738,3.3782,3.38,3.3565,3.3563,3.3562,3.356,0,0,3.3184,3.3248,3.3271,3.3299,3.3353,3.3407,3.3485,3.3549,3.3585,3.3632,3.3696,3.3787,3.3759,3.3795,3.3793,3.3846,3.3953,3.3809,3.381,3.3833,3.4083,3.4104,3.4125,3.394,3.3943,3.3946,3.4078,0,3.3317,3.3454,3.3457,3.3582,3.3646,3.3623,3.369,3.3729,3.3744,3.38,3.3816,3.3879,3.3839,3.386,3.3911,3.393,3.4003,3.392,3.3997,3.4,3.3985,3.4148,3.4171,3.4295,3.4096,3.4099,3.4101,0,3.3492,3.3545,3.3676,3.3719,3.3746,3.3806,3.3864,3.3918,3.3961,3.3968,3.4008,3.3997,3.4074,3.4017,3.4122,3.4065,3.4097,3.411,3.4115,3.4121,3.4056,3.4157,3.4334,3.4352,3.4128,3.4126,3.4124,0,3.36,3.3703,3.3795,3.382,3.3873,3.3915,3.3939,3.3979,3.4016,3.4066,3.409,3.4149,3.418,3.4225,3.423,3.4188,3.4335,3.4278,3.4341,3.4341,3.4373,3.437,3.4555,3.4396,3.4395,3.4395,3.4395,0,3.3748,3.3829,3.3844,3.39,3.3989,3.399,3.4078,3.4098,3.4133,3.4191,3.4175,3.423,3.4234,3.4289,3.4294,3.4379,3.4394,3.44,3.44,3.4401,3.44,3.4421,3.4412,3.44,3.4399,3.4398,3.4397,0,3.3883,3.3897,3.3994,3.4036,3.4048,3.4111,3.4146,3.4199,3.4211,3.4285,3.4303,3.4323,3.4387,3.4397,3.4473,3.4475,3.4577,3.4569,3.4563,3.4561,3.4623,3.4617,3.4827,3.4854,3.4678,3.468,3.4681,0,3.3977,3.4038,3.4086,3.4124,3.415,3.4212,3.4249,3.4253,3.4293,3.4346,3.4392,3.4455,3.4505,3.4609,3.463,3.4687,3.4679,3.4749,3.4687,3.4686,3.4678,3.4674,3.4679,3.476,3.4762,3.4764,3.4765,0,3.414,3.4143,3.4199,3.4257,3.4303,3.4349,3.4392,3.4424,3.4432,3.4478,3.4544,3.4583,3.466,3.4722,3.4779,3.4801,3.4784,3.4784,3.4802,3.4803,3.4796,3.4798,3.4593,3.4779,3.4778,3.4777,3.4776,3.4775,3.4256,3.4308,3.435,3.4412,3.4445,3.4485,3.4536,3.4555,3.4611,3.4674,3.4672,3.4744,3.4784,3.4858,3.4885,3.494,3.4917,3.4943,3.4949,3.4955,3.496,3.4788,3.495,3.495,3.495,3.4949,3.4949,0,3.4416,3.4442,3.4499,3.456,3.4608,3.4589,3.4635,3.4676,3.474,3.4779,3.4829,3.4904,3.4964,3.4989,3.5047,3.5086,3.508,3.5101,3.5098,3.5103,3.4978,3.4957,3.5105,3.5105,3.5105,3.5105,3.5105,3.5105,3.4506,3.4593,3.4601,3.4704,3.4728,3.4799,3.4827,3.4863,3.4894,3.4979,3.5028,3.5044,3.5077,3.5137,3.5191,3.5196,3.5218,3.5243,3.5245,3.5128,3.5112,3.5097,3.5076,3.5248,3.5248,3.5364,3.5365,3.5366]}]]